• Em Portugal
  • Lista de países
  • Para 7 dias
  • Temperatura da água
  • Mapas de satélite
  • Mapa do tempo
  • Widgets de tempo
  • user-avatar
    Iniciar Sessão

    Previsão horária em Dalandzadgad

    Hoje, 21 Setembro, Sexta-feira

    Tempo Temperatura Precipitação Vento Pressão Humidade
    00:00 +4°C° 0 mm 8 m/s 638 mmHg 33%
    01:00 +2°C° 0 mm 8 m/s 638 mmHg 37%
    02:00 +2°C° 0 mm 8 m/s 638 mmHg 38%
    03:00 +3°C° 0 mm 7 m/s 638 mmHg 40%
    04:00 +2°C° 0 mm 7 m/s 638 mmHg 41%
    05:00 +2°C° 0 mm 7 m/s 638 mmHg 40%
    06:00 +2°C° 0 mm 7 m/s 639 mmHg 39%
    07:00 +3°C° 0 mm 7 m/s 639 mmHg 37%
    08:00 +4°C° 0 mm 7 m/s 639 mmHg 34%
    09:00 +5°C° 0 mm 7 m/s 640 mmHg 31%
    10:00 +6°C° 0 mm 8 m/s 640 mmHg 29%
    11:00 +6°C° 0 mm 7 m/s 640 mmHg 26%
    12:00 +8°C° 0 mm 7 m/s 640 mmHg 24%
    13:00 +10°C° 0 mm 7 m/s 640 mmHg 21%
    14:00 +10°C° 0 mm 7 m/s 640 mmHg 21%
    15:00 +10°C° 0 mm 6 m/s 639 mmHg 20%
    16:00 +11°C° 0 mm 6 m/s 639 mmHg 20%
    17:00 +10°C° 0 mm 5 m/s 639 mmHg 21%
    18:00 +10°C° 0 mm 5 m/s 639 mmHg 22%
    19:00 +9°C° 0 mm 5 m/s 639 mmHg 22%
    20:00 +8°C° 0 mm 4 m/s 639 mmHg 23%
    21:00 +9°C° 0 mm 3 m/s 639 mmHg 25%
    22:00 +9°C° 0 mm 2 m/s 639 mmHg 26%
    23:00 +9°C° 0 mm 1 m/s 639 mmHg 27%

    Amanhã, 22 Setembro, Sábado

    Tempo Temperatura Precipitação Vento Pressão Humidade
    00:00 +9°C° 0 mm 1 m/s 639 mmHg 28%
    01:00 +8°C° 0 mm 1 m/s 639 mmHg 29%
    02:00 +8°C° 0 mm 1 m/s 639 mmHg 30%
    03:00 +8°C° 0 mm 1 m/s 639 mmHg 30%
    04:00 +7°C° 0 mm 1 m/s 638 mmHg 31%
    05:00 +8°C° 0 mm 1 m/s 639 mmHg 29%
    06:00 +8°C° 0 mm 1 m/s 639 mmHg 28%
    07:00 +8°C° 0 mm 1 m/s 639 mmHg 27%
    08:00 +9°C° 0 mm 2 m/s 640 mmHg 24%
    09:00 +10°C° 0 mm 3 m/s 640 mmHg 21%
    10:00 +11°C° 0 mm 3 m/s 641 mmHg 18%
    11:00 +12°C° 0 mm 4 m/s 641 mmHg 17%
    12:00 +13°C° 0 mm 5 m/s 641 mmHg 17%
    13:00 +13°C° 0 mm 5 m/s 641 mmHg 17%
    14:00 +13°C° 0 mm 5 m/s 641 mmHg 17%
    15:00 +13°C° 0 mm 5 m/s 641 mmHg 18%
    16:00 +13°C° 0 mm 6 m/s 641 mmHg 18%
    17:00 +13°C° 0 mm 5 m/s 641 mmHg 20%
    18:00 +12°C° 0 mm 5 m/s 641 mmHg 22%
    19:00 +11°C° 0 mm 4 m/s 641 mmHg 24%
    20:00 +11°C° 0 mm 4 m/s 641 mmHg 26%
    21:00 +10°C° 0 mm 3 m/s 641 mmHg 28%
    22:00 +10°C° 0 mm 3 m/s 642 mmHg 29%
    23:00 +9°C° 0 mm 2 m/s 642 mmHg 32%

    Depois de amanhã, 23 Setembro, Domingo

    Tempo Temperatura Precipitação Vento Pressão Humidade
    00:00 +9°C° 0 mm 2 m/s 641 mmHg 34%
    01:00 +9°C° 0 mm 1 m/s 641 mmHg 36%
    02:00 +9°C° 0 mm 1 m/s 641 mmHg 37%
    03:00 +8°C° 0 mm 1 m/s 641 mmHg 38%
    04:00 +8°C° 0 mm 1 m/s 641 mmHg 39%
    05:00 +8°C° 0 mm 1 m/s 641 mmHg 37%
    06:00 +7°C° 0 mm 2 m/s 641 mmHg 36%
    07:00 +8°C° 0 mm 2 m/s 641 mmHg 34%
    08:00 +9°C° 0 mm 2 m/s 641 mmHg 30%
    09:00 +12°C° 0 mm 2 m/s 642 mmHg 26%
    10:00 +13°C° 0 mm 2 m/s 642 mmHg 22%
    11:00 +14°C° 0 mm 2 m/s 642 mmHg 20%
    12:00 +14°C° 0 mm 3 m/s 642 mmHg 17%
    13:00 +16°C° 0 mm 3 m/s 641 mmHg 15%
    14:00 +16°C° 0 mm 3 m/s 641 mmHg 15%
    15:00 +17°C° 0 mm 3 m/s 640 mmHg 14%
    16:00 +17°C° 0 mm 3 m/s 640 mmHg 14%
    17:00 +17°C° 0 mm 2 m/s 640 mmHg 15%
    18:00 +16°C° 0 mm 2 m/s 640 mmHg 16%
    19:00 +16°C° 0 mm 2 m/s 639 mmHg 17%
    20:00 +15°C° 0 mm 2 m/s 640 mmHg 17%
    21:00 +15°C° 0 mm 2 m/s 640 mmHg 18%
    22:00 +13°C° 0 mm 3 m/s 640 mmHg 19%
    23:00 +12°C° 0 mm 3 m/s 639 mmHg 21%

    24 Setembro, Segunda-feira

    Tempo Temperatura Precipitação Vento Pressão Humidade
    00:00 +12°C° 0 mm 3 m/s 639 mmHg 22%
    01:00 +11°C° 0 mm 4 m/s 638 mmHg 24%
    02:00 +11°C° 0 mm 4 m/s 638 mmHg 25%
    03:00 +11°C° 0 mm 3 m/s 638 mmHg 26%
    04:00 +10°C° 0 mm 3 m/s 637 mmHg 27%
    05:00 +10°C° 0 mm 3 m/s 637 mmHg 27%
    06:00 +12°C° 0 mm 2 m/s 638 mmHg 26%
    07:00 +12°C° 0 mm 2 m/s 638 mmHg 25%
    08:00 +13°C° 0 mm 2 m/s 638 mmHg 22%
    09:00 +15°C° 0 mm 2 m/s 639 mmHg 19%
    10:00 +17°C° 0 mm 3 m/s 639 mmHg 15%
    11:00 +17°C° 0 mm 2 m/s 639 mmHg 15%
    12:00 +18°C° 0 mm 2 m/s 638 mmHg 14%
    13:00 +19°C° 0 mm 2 m/s 638 mmHg 13%
    14:00 +19°C° 0 mm 2 m/s 638 mmHg 12%
    15:00 +19°C° 0 mm 2 m/s 637 mmHg 12%
    16:00 +20°C° 0 mm 2 m/s 637 mmHg 12%
    17:00 +19°C° 0 mm 2 m/s 637 mmHg 13%
    18:00 +19°C° 0 mm 2 m/s 637 mmHg 14%
    19:00 +18°C° 0 mm 3 m/s 637 mmHg 15%
    20:00 +17°C° 0 mm 3 m/s 637 mmHg 16%
    21:00 +17°C° 0 mm 3 m/s 637 mmHg 16%
    22:00 +16°C° 0 mm 3 m/s 637 mmHg 17%
    23:00 +16°C° 0 mm 3 m/s 637 mmHg 18%

    25 Setembro, Terça-feira

    Tempo Temperatura Precipitação Vento Pressão Humidade
    00:00 +14°C° 0 mm 3 m/s 636 mmHg 18%
    01:00 +14°C° 0 mm 3 m/s 636 mmHg 19%
    02:00 +14°C° 0 mm 2 m/s 635 mmHg 20%
    03:00 +14°C° 0 mm 2 m/s 635 mmHg 21%
    04:00 +13°C° 0 mm 2 m/s 634 mmHg 22%
    05:00 +13°C° 0 mm 2 m/s 634 mmHg 22%
    06:00 +14°C° 0 mm 2 m/s 635 mmHg 23%
    07:00 +14°C° 0 mm 2 m/s 635 mmHg 23%
    08:00 +15°C° 0 mm 2 m/s 635 mmHg 21%
    09:00 +17°C° 0 mm 2 m/s 636 mmHg 18%
    10:00 +18°C° 0 mm 2 m/s 636 mmHg 15%
    11:00 +19°C° 0 mm 2 m/s 636 mmHg 14%
    12:00 +20°C° 0 mm 3 m/s 636 mmHg 13%
    13:00 +21°C° 0 mm 3 m/s 635 mmHg 13%
    14:00 +22°C° 0 mm 3 m/s 635 mmHg 13%
    15:00 +22°C° 0 mm 4 m/s 635 mmHg 14%
    16:00 +22°C° 0 mm 4 m/s 635 mmHg 14%
    17:00 +21°C° 0 mm 3 m/s 635 mmHg 16%
    18:00 +21°C° 0 mm 3 m/s 635 mmHg 19%
    19:00 +20°C° 0 mm 3 m/s 635 mmHg 21%
    20:00 +19°C° 0 mm 2 m/s 634 mmHg 22%
    21:00 +19°C° 0 mm 2 m/s 634 mmHg 24%
    22:00 +19°C° 0 mm 1 m/s 634 mmHg 25%
    23:00 +17°C° 0 mm 2 m/s 634 mmHg 27%

    26 Setembro, Quarta-feira

    Tempo Temperatura Precipitação Vento Pressão Humidade
    00:00 +17°C° 0 mm 2 m/s 634 mmHg 29%
    01:00 +17°C° 0 mm 3 m/s 634 mmHg 31%
    02:00 +16°C° 0 mm 3 m/s 633 mmHg 30%
    03:00 +16°C° 0 mm 3 m/s 633 mmHg 30%
    04:00 +14°C° 0 mm 3 m/s 633 mmHg 29%
    05:00 +14°C° 0 mm 3 m/s 634 mmHg 29%
    06:00 +14°C° 0 mm 3 m/s 634 mmHg 30%
    07:00 +14°C° 0 mm 3 m/s 634 mmHg 30%
    08:00 +15°C° 0 mm 4 m/s 635 mmHg 28%
    09:00 +16°C° 0 mm 5 m/s 635 mmHg 27%
    10:00 +19°C° 0 mm 6 m/s 636 mmHg 25%
    11:00 +19°C° 0 mm 6 m/s 636 mmHg 25%
    12:00 +18°C° 0 mm 7 m/s 636 mmHg 24%
    13:00 +20°C° 0 mm 7 m/s 635 mmHg 23%
    14:00 +19°C° 0 mm 6 m/s 635 mmHg 24%
    15:00 +19°C° 0 mm 6 m/s 635 mmHg 25%
    16:00 +19°C° 0 mm 5 m/s 635 mmHg 26%
    17:00 +17°C° 0.1 mm 5 m/s 635 mmHg 30%
    18:00 +16°C° 0.1 mm 5 m/s 635 mmHg 34%
    19:00 +15°C° 0.1 mm 5 m/s 635 mmHg 38%
    20:00 +14°C° 0.6 mm 5 m/s 635 mmHg 46%
    21:00 +13°C° 0.6 mm 5 m/s 635 mmHg 53%
    22:00 +10°C° 0.6 mm 5 m/s 635 mmHg 61%
    23:00 +9°C° 1.8 mm 6 m/s 635 mmHg 65%
    Mostrar mais